Terug naar catalogus

YAOGAN-36 04C

ActiefMilitairVLEO
NORAD 54750·PAYLOAD·🇨🇳 China

Gelanceerd Dec 14, 2022 vanaf Xichang Satellite Launch Center

Loading…

Volgende Passages (komende 24 uur)

TLE

VersSource: Space-Track

Epoch: Sep 14, 2026, 22:07 UTC

1 54750U 22171E   26257.92162240  .00016435  00000-0  47554-3 0  9999
2 54750  34.9812 329.8202 0006011 227.3743 132.6469 15.34711026209273

Volg YAOGAN-36 04C in realtime met AllMySat

Download on the App Store